Prescott, AZ

2:40 AM MST on May 23, 2018 (GMT -0700)
Love

Weather History for KPRC - March, 2013

Change the Weather History Date:

Thursday, March 7, 2013

  Actual Average Record
Temperature  
Mean Temperature 46 °F 45 °F  
Max Temperature 61 °F 58 °F 76 °F (1972)
Min Temperature 30 °F 32 °F 15 °F (1971)
Degree Days  
Heating Degree Days 20    
Month to date heating degree days  
Since 1 July heating degree days  
Cooling Degree Days 0    
Month to date cooling degree days  
Year to date cooling degree days  
Moisture  
Dew Point 22 °F    
Average Humidity 38    
Maximum Humidity 69    
Minimum Humidity 18    
Precipitation  
Precipitation 0.00 in 0.05 in 0.45 in (2001)
Month to date precipitation 0.30  
Year to date precipitation 2.81  
Sea Level Pressure  
Sea Level Pressure 29.91 in    
Wind  
Wind Speed 7 mph (South)    
Max Wind Speed 23 mph    
Max Gust Speed 30 mph    
Visibility 10 miles    
Events      
T = Trace of Precipitation, MM = Missing Value Source: NWS Daily Summary

Daily Weather History Graph

Daily Weather History Graph

Search for Another Location

Airport or City:

Astronomy

Mar. 07, 2013 Rise Set
Actual Time 6:50 AM MST 6:31 PM MST
Civil Twilight 6:25 AM MST 6:56 PM MST
Nautical Twilight 5:56 AM MST 7:25 PM MST
Astronomical Twilight 5:27 AM MST 7:54 PM MST
Moon 3:44 AM MST (3/7) 2:31 PM MST (3/7)
Length of Visible Light 12h 30m
Length of Day
11h 40m
Waning Crescent, 19% of the Moon is Illuminated
Mar 7
Waning Crescent
Mar 11
New
Mar 19
First Quarter
Mar 27
Full
Apr 2
Last Quarter

Hourly Weather History & Observations

Time (MST) Temp. Windchill Dew Point Humidity Pressure Visibility Wind Dir Wind Speed Gust Speed Precip Events Conditions
12:53 AM 39.0 °F 35.7 °F 25.0 °F 57% 29.87 in 10.0 mi South 4.6 mph - N/A   Clear
1:53 AM 35.1 °F 31.0 °F 24.1 °F 64% 29.87 in 10.0 mi SSW 4.6 mph - N/A   Clear
2:53 AM 35.1 °F - 23.0 °F 61% 29.84 in 10.0 mi Calm Calm - N/A   Clear
3:53 AM 36.0 °F - 21.9 °F 57% 29.84 in 10.0 mi Calm Calm - N/A   Clear
4:53 AM 36.0 °F - 21.9 °F 57% 29.85 in 10.0 mi Calm Calm - N/A   Clear
5:53 AM 30.9 °F 26.2 °F 21.9 °F 69% 29.88 in 10.0 mi South 4.6 mph - N/A   Clear
6:53 AM 35.1 °F - 23.0 °F 61% 29.89 in 10.0 mi Calm Calm - N/A   Clear
8:53 AM 51.1 °F - 26.1 °F 38% 30.01 in 10.0 mi Calm Calm - N/A   Clear
9:53 AM 55.9 °F - 21.9 °F 27% 30.00 in 10.0 mi SSW 12.7 mph 20.7 mph N/A   Clear
10:53 AM 57.9 °F - 18.0 °F 21% 30.00 in 10.0 mi SW 13.8 mph - N/A   Clear
11:53 AM 59.0 °F - 18.0 °F 20% 30.00 in 10.0 mi SSW 13.8 mph 19.6 mph N/A   Partly Cloudy
12:53 PM 60.1 °F - 19.0 °F 20% 29.98 in 10.0 mi SSW 11.5 mph 21.9 mph N/A   Partly Cloudy
1:53 PM 61.0 °F - 18.0 °F 19% 29.96 in 10.0 mi South 15.0 mph 25.3 mph N/A   Clear
2:53 PM 60.1 °F - 16.0 °F 18% 29.94 in 10.0 mi SSW 20.7 mph 27.6 mph N/A   Clear
3:53 PM 60.1 °F - 16.0 °F 18% 29.94 in 10.0 mi SSW 23.0 mph 27.6 mph N/A   Partly Cloudy
4:53 PM 57.0 °F - 18.0 °F 22% 29.94 in 10.0 mi SSW 17.3 mph 29.9 mph N/A   Clear
5:53 PM 54.0 °F - 21.9 °F 29% 29.94 in 10.0 mi South 9.2 mph - N/A   Clear
6:53 PM 52.0 °F - 21.9 °F 31% 29.96 in 10.0 mi SSW 9.2 mph - N/A   Clear
7:53 PM 50.0 °F - 23.0 °F 35% 29.97 in 10.0 mi South 8.1 mph 17.3 mph N/A   Clear
8:53 PM 48.0 °F - 24.1 °F 39% 29.82 in 10.0 mi SSE 8.1 mph - N/A   Clear
9:53 PM 50.0 °F - 24.1 °F 36% 29.80 in 10.0 mi SE 5.8 mph - N/A   Clear
10:53 PM 48.9 °F - 24.1 °F 38% 29.79 in 10.0 mi Variable 4.6 mph - N/A   Partly Cloudy
11:53 PM 48.9 °F - 25.0 °F 39% 29.77 in 10.0 mi SE 8.1 mph - N/A   Clear